Weather History for KGEY - October, 2013

Change the Weather History Date:

Wednesday, October 2, 2013

  Actual Average Record
Temperature  
Mean Temperature 51 °F 51 °F  
Max Temperature 58 °F 66 °F 83 °F (2012)
Min Temperature 43 °F 37 °F 29 °F (2009)
Degree Days  
Heating Degree Days 14 14  
Month to date heating degree days 25 27  
Since 1 July heating degree days 147 258  
Cooling Degree Days 0 0  
Month to date cooling degree days 0 0  
Year to date cooling degree days 1005 669  
Moisture  
Dew Point 36 °F    
Average Humidity 68    
Maximum Humidity 93    
Minimum Humidity 43    
Precipitation  
Precipitation 0.14 in 0.02 in 0.14 in (2013)
Month to date precipitation 0.14 0.05  
Year to date precipitation 3.87 6.38  
Sea Level Pressure  
Sea Level Pressure 29.95 in    
Wind  
Wind Speed 8 mph (SW)    
Max Wind Speed 23 mph    
Max Gust Speed 28 mph    
Visibility 10 miles    
Events Rain    
T = Trace of Precipitation, MM = Missing Value Source: NWS Daily Summary

Daily Weather History Graph

Daily Weather History Graph

Search for Another Location

Airport or City:

Trip Planner

Search our weather history database for the weather conditions in past years. The results will help you decide how hot, cold, wet, or windy it might be!

Date:

Astronomy

Oct. 02, 2013 Rise Set
Actual Time 7:11 AM MDT 6:50 PM MDT
Civil Twilight 6:42 AM MDT 7:19 PM MDT
Nautical Twilight 6:08 AM MDT 7:53 PM MDT
Astronomical Twilight 5:34 AM MDT 8:27 PM MDT
Moon 4:43 AM MDT (10/2) 5:31 PM MDT (10/2)
Length of Visible Light 12h 36m
Length of Day
11h 38m
Waning Crescent, 6% of the Moon is Illuminated
Oct 2
Waning Crescent
Oct 4
New
Oct 11
First Quarter
Oct 18
Full
Oct 26
Last Quarter

Hourly Weather History & Observations

Time (MDT) Temp. Windchill Dew Point Humidity Pressure Visibility Wind Dir Wind Speed Gust Speed Precip Events Conditions
12:53 AM 51.1 °F - 36.0 °F 56% 29.84 in 10.0 mi NW 4.6 mph - N/A   Scattered Clouds
1:53 AM 53.1 °F - 35.1 °F 50% 29.88 in 10.0 mi NW 20.7 mph 26.5 mph N/A   Overcast
2:53 AM 50.0 °F - 34.0 °F 54% 29.87 in 10.0 mi WNW 17.3 mph - N/A   Scattered Clouds
3:53 AM 48.9 °F - 28.9 °F 46% 29.88 in 10.0 mi WNW 11.5 mph - N/A   Clear
4:53 AM 46.9 °F - 30.9 °F 54% 29.91 in 10.0 mi WNW 15.0 mph - N/A   Clear
5:53 AM 46.0 °F 38.3 °F 32.0 °F 58% 29.95 in 10.0 mi NW 20.7 mph 25.3 mph N/A   Partly Cloudy
6:53 AM 44.1 °F 38.1 °F 33.1 °F 65% 29.99 in 10.0 mi West 11.5 mph - N/A   Scattered Clouds
7:53 AM 44.1 °F 37.7 °F 34.0 °F 68% 30.03 in 10.0 mi WNW 12.7 mph - N/A   Clear
8:53 AM 48.0 °F - 36.0 °F 63% 30.04 in 10.0 mi Variable 5.8 mph - N/A   Mostly Cloudy
9:53 AM 48.0 °F - 35.1 °F 61% 30.06 in 10.0 mi East 5.8 mph - N/A   Overcast
10:53 AM 51.1 °F - 34.0 °F 52% 30.04 in 10.0 mi West 3.5 mph - N/A   Clear
11:53 AM 54.0 °F - 35.1 °F 49% 30.03 in 10.0 mi Variable 4.6 mph - N/A   Clear
12:53 PM 55.9 °F - 34.0 °F 44% 30.01 in 10.0 mi Calm Calm - N/A   Clear
1:53 PM 57.0 °F - 35.1 °F 44% 29.97 in 10.0 mi Variable 3.5 mph - N/A   Clear
2:53 PM 57.9 °F - 35.1 °F 42% 29.94 in 10.0 mi SE 3.5 mph - N/A   Clear
3:53 PM 57.9 °F - 35.1 °F 42% 29.92 in 10.0 mi SSE 4.6 mph - N/A   Clear
4:53 PM 57.0 °F - 35.1 °F 44% 29.93 in 10.0 mi Calm Calm - N/A   Clear
5:53 PM 57.0 °F - 35.1 °F 44% 29.90 in 10.0 mi SSE 3.5 mph - N/A   Mostly Cloudy
6:53 PM 55.9 °F - 35.1 °F 45% 29.90 in 10.0 mi Calm Calm - N/A   Overcast
7:53 PM 54.0 °F - 39.9 °F 59% 29.92 in 10.0 mi South 4.6 mph - 0.00 in Rain Light Rain
8:53 PM 51.1 °F - 44.1 °F 77% 29.95 in 10.0 mi South 10.4 mph - 0.00 in Rain Light Rain
9:53 PM 48.0 °F - 44.1 °F 86% 29.96 in 10.0 mi South 12.7 mph - 0.00 in Rain Light Rain
10:53 PM 46.9 °F - 45.0 °F 93% 29.97 in 5.0 mi South 8.1 mph - 0.04 in Rain Rain
11:53 PM 46.0 °F 43.9 °F 45.0 °F 96% 29.94 in 8.0 mi SSE 4.6 mph - 0.07 in Rain Light Rain